Location: Santa Cristina
(46.5667°N, 11.7167°E)
Time: 05:00:13
(UTC+00:00)

Cosmos 489 Rocket - Pass Details

Date: 21 April 2021
Orbit: 953 x 983 km, 74.0° (Epoch: 15 May)

Event Time Altitude Azimuth Distance (km) Brightness Sun altitude
Rises 02:19:19 0° 334° (NNW) 3,640 7.7 -18.1°
Reaches altitude 10° 02:21:52 10° 331° (NNW) 2,690 7.0 -17.7°
Maximum altitude 02:27:57 58° 254° (WSW) 1,105 4.5 -16.9°
Drops below altitude 10° 02:34:00 10° 177° (S) 2,682 6.5 -16.1°
Sets 02:36:33 0° 174° (S) 3,628 7.2 -15.8°
